Wind_Speed
22 21 20 19 19 19 19 21 22 22 22 20 18 16 15 13 11 10 10 10 9 7 6 7 7 8 8 8 8 7 6 6 7 7 7 7 7 8 8 8 9 8 8 8 8 8 7 6 6
26 24 23 22 20 18 18 21 23 24 23 22 20 18 15 13 11 10 10 10 9 8 7 7 8 9 9 9 9 9 8 8 8 8 8 8 9 8 8 8 8 8 8 7 7 7 6 5 5
28 27 27 25 22 18 18 22 24 25 24 23 22 19 16 13 12 11 11 11 11 10 9 9 10 10 10 10 10 10 10 10 9 9 9 9 9 9 8 8 8 7 7 6 6 5 5 4 4
30 31 30 28 23 19 21 23 25 26 25 24 23 21 17 15 12 12 12 13 13 12 10 10 11 11 11 11 11 11 11 11 10 10 10 10 10 10 9 8 7 6 6 5 5 4 4 3 3
30 32 32 29 24 22 23 25 27 27 27 26 25 23 20 17 15 14 13 14 14 13 12 12 12 12 11 10 11 11 12 12 11 11 11 11 11 10 9 8 7 6 5 5 5 4 4 3 4
31 32 33 31 27 25 26 28 29 29 29 28 27 25 22 20 18 16 15 15 15 15 14 13 13 12 11 11 11 11 12 12 12 12 12 11 11 10 9 8 7 6 5 5 5 4 4 4 4
29 31 32 31 30 29 29 31 32 31 31 30 29 26 23 20 18 17 16 16 16 15 14 14 13 13 12 12 11 11 12 12 13 12 12 11 11 10 9 8 8 7 6 6 5 5 4 4 5
29 30 31 31 30 30 31 34 34 34 33 32 30 27 25 23 21 19 17 17 17 14 15 14 13 12 12 12 12 12 12 13 13 13 12 12 11 11 10 9 9 8 8 7 7 6 5 5 5
29 30 29 29 31 31 33 36 37 37 36 34 32 29 26 23 21 17 17 16 16 14 14 14 13 12 12 12 12 12 13 13 13 13 13 13 12 12 11 11 10 10 9 9 8 7 7 6 6
28 29 29 29 31 32 35 37 38 39 38 36 33 30 27 24 20 18 16 15 13 12 12 13 13 12 12 11 12 12 13 14 14 14 14 14 13 13 13 12 12 11 11 11 10 9 8 8 8
27 27 28 30 31 33 35 38 40 41 39 37 34 31 28 24 21 19 16 15 13 13 13 13 13 12 12 12 12 13 14 14 14 15 15 15 15 14 14 14 14 13 13 13 12 12 11 10 10
26 26 27 29 31 33 34 37 40 41 39 38 36 32 28 22 19 16 14 13 14 14 14 13 12 12 13 13 13 13 14 14 15 16 16 16 16 16 16 16 15 15 15 15 14 13 13 12 12
26 26 27 27 29 31 33 35 38 40 39 39 37 34 29 23 17 14 14 14 14 15 14 14 12 13 14 14 14 14 14 15 16 17 18 18 18 18 18 18 17 17 17 16 16 15 15 15 14
27 26 26 25 26 28 30 33 36 36 38 40 38 34 30 25 20 16 15 15 15 16 16 16 14 13 14 14 14 15 16 17 18 18 19 19 19 19 20 19 20 19 19 18 17 17 17 17 17
27 26 24 24 26 27 29 31 32 33 37 38 39 36 32 27 23 19 18 17 17 18 17 17 16 15 16 15 15 16 18 18 19 21 21 21 21 22 22 22 21 21 21 20 20 19 19 19 18
26 25 23 23 25 26 29 29 29 33 36 37 38 37 34 30 27 24 22 19 20 19 19 18 18 18 17 18 18 17 18 20 21 21 22 23 23 23 23 23 22 22 22 23 22 21 21 21 20
24 24 22 23 24 26 29 29 29 32 35 37 38 38 37 33 30 27 25 23 22 21 21 21 21 22 21 21 21 20 20 21 22 22 23 24 24 24 24 24 24 23 23 24 23 23 22 22 21
23 22 22 22 24 27 28 29 28 30 33 35 36 37 38 36 33 30 29 26 25 24 23 24 23 24 24 23 24 23 22 23 23 23 24 25 26 25 25 25 25 26 25 25 24 24 24 24 23
21 21 20 21 24 26 28 27 26 27 30 33 35 36 37 36 35 33 31 30 29 27 26 26 26 26 27 27 25 23 24 25 25 25 25 26 27 27 27 26 26 27 27 26 25 26 26 26 26
20 20 19 21 23 25 26 25 23 24 26 29 31 34 35 35 35 34 33 31 30 29 27 26 26 27 27 28 26 26 25 26 26 26 27 28 28 29 28 28 27 26 27 26 26 27 27 27 28
19 20 20 21 22 23 24 23 21 22 23 25 27 30 32 34 35 34 33 32 31 30 28 27 27 27 27 27 28 27 26 27 28 27 28 28 28 28 27 26 25 24 25 25 24 25 26 27 27
19 20 20 21 22 22 22 21 20 20 21 22 24 25 28 31 33 34 33 33 32 30 28 27 26 25 27 28 28 26 26 26 27 28 29 27 27 27 26 24 24 24 23 23 24 25 25 26 27
19 20 21 21 22 22 22 22 20 19 20 20 21 22 24 27 30 31 31 31 31 30 28 27 27 27 27 27 26 27 26 25 26 28 29 29 28 27 26 24 23 23 23 23 24 24 24 25 27
19 19 20 21 22 22 21 22 21 19 19 19 20 21 22 23 26 28 29 28 29 29 28 28 27 27 26 25 25 25 23 22 25 27 26 27 27 26 25 24 23 22 23 23 23 24 25 26 27
18 18 19 20 21 21 21 22 21 20 18 18 20 20 20 21 23 25 26 27 27 26 26 26 25 24 23 23 24 23 21 20 22 22 21 23 25 25 23 22 22 23 24 24 23 24 26 28 29
17 18 19 19 20 21 23 21 20 19 18 17 18 18 19 20 20 21 23 24 24 24 25 25 23 22 22 22 22 22 20 20 19 20 20 20 21 22 21 22 22 23 23 24 25 27 28 29 31
16 17 19 20 20 20 21 21 20 19 18 18 18 18 19 20 20 20 21 23 23 23 23 23 22 22 22 22 21 21 21 19 18 18 18 18 19 19 21 22 23 24 25 26 28 29 30 32 34
14 16 17 18 19 20 20 20 20 20 21 21 21 21 20 21 21 20 21 21 22 21 21 21 21 22 21 21 21 21 20 19 18 18 18 19 20 21 22 22 23 25 27 28 30 31 33 35 36
13 14 15 17 18 19 19 19 19 20 21 21 20 19 19 20 22 21 22 22 21 22 22 22 22 21 21 21 22 22 21 21 21 21 21 21 22 23 24 25 26 28 30 32 33 34 36 37 38
11 12 13 16 16 17 18 18 17 18 19 19 19 18 18 18 20 21 22 22 22 21 22 22 22 22 22 22 22 23 22 22 22 22 23 23 24 25 27 28 30 32 33 34 35 36 36 37 38
Wind_Direction
258 257 257 257 252 248 246 246 245 246 248 251 255 261 263 260 254 235 203 183 177 186 203 215 231 243 244 241 241 245 250 261 268 271 273 278 281 284 291 296 300 305 306 307 308 310 314 317 320
256 256 257 257 255 252 250 249 248 249 251 252 256 261 265 264 251 233 207 190 188 195 203 219 231 237 240 240 240 244 249 258 266 270 272 275 277 280 287 292 295 300 302 303 305 310 313 316 319
253 255 256 257 256 254 252 251 250 251 254 254 256 258 264 262 244 228 208 195 194 198 210 222 229 234 237 237 239 242 246 254 262 267 269 272 275 279 284 287 291 296 299 301 302 306 309 314 318
252 254 256 257 257 253 252 252 253 254 254 254 255 258 261 259 244 230 213 207 204 204 213 219 225 230 233 235 238 242 245 250 257 261 265 269 273 277 281 284 286 292 296 297 296 297 301 304 305
252 253 256 258 256 252 250 253 254 255 254 253 254 258 264 262 247 229 219 213 206 204 209 215 222 228 230 234 237 240 242 246 251 256 260 264 269 272 276 278 280 284 287 286 285 287 288 287 289
251 253 255 257 254 250 248 251 253 255 255 254 254 258 264 265 254 235 221 217 208 205 206 212 219 224 228 232 236 238 241 243 246 250 255 260 264 267 268 270 273 275 273 273 274 276 275 276 281
253 254 255 255 252 248 247 249 251 253 256 256 255 256 259 261 255 245 238 230 216 213 211 213 218 224 228 232 236 237 239 241 242 246 251 255 258 259 259 261 262 263 261 261 262 264 265 270 275
257 256 255 254 252 247 246 247 249 252 254 256 257 256 258 262 260 255 251 235 222 221 217 213 218 220 225 230 234 235 237 239 242 244 248 250 250 250 251 251 252 253 253 252 252 254 257 262 268
260 258 257 254 249 244 242 244 247 249 251 253 256 257 259 265 265 263 260 246 229 221 220 213 216 220 224 228 232 235 236 238 240 243 245 245 244 244 245 243 244 245 246 245 245 246 250 255 259
263 261 257 253 249 242 239 241 244 246 249 251 255 257 260 263 266 267 268 259 242 230 227 219 219 222 226 230 232 235 237 238 239 240 241 240 239 240 240 238 239 241 242 242 243 244 247 251 255
267 264 259 255 251 245 240 239 241 244 247 249 252 255 260 261 266 269 265 258 240 234 230 218 218 221 226 230 232 236 238 239 239 238 237 237 236 237 237 236 237 237 239 240 242 245 248 252 256
272 268 263 258 254 249 243 240 241 242 244 247 250 253 257 261 260 256 250 247 236 229 231 223 220 225 229 232 235 237 240 241 241 239 238 236 235 235 235 235 235 236 237 240 243 246 251 255 256
272 268 266 262 258 254 247 242 241 242 242 245 247 250 252 254 252 248 244 241 239 235 237 232 228 229 232 234 236 237 240 242 243 241 238 237 236 236 236 237 236 237 240 243 247 251 254 256 258
274 271 267 263 258 255 250 244 242 241 241 243 245 246 246 247 247 246 244 240 239 239 243 236 238 235 233 236 241 242 242 243 242 240 239 239 238 237 237 238 239 239 242 247 249 253 256 257 259
274 271 267 261 255 253 251 246 244 240 240 241 242 243 243 242 243 243 243 243 242 246 249 249 250 244 239 239 242 243 244 243 242 241 240 239 240 239 240 241 241 243 245 247 250 253 258 259 262
272 269 262 257 253 251 250 246 241 239 238 238 239 240 241 240 240 240 241 243 245 249 252 257 255 255 250 244 244 244 245 245 242 242 242 241 241 240 241 243 244 245 246 247 249 255 258 261 264
270 267 260 253 251 248 248 246 240 239 237 236 236 237 238 238 238 238 241 245 248 252 256 260 259 256 254 250 249 250 252 250 245 243 243 242 242 242 241 243 244 245 247 250 252 254 258 260 263
270 266 260 253 249 248 249 250 244 241 238 236 235 235 237 237 237 238 241 245 250 255 258 260 258 256 254 250 251 251 252 252 247 244 243 242 241 242 242 244 243 245 249 252 253 254 257 259 262
270 266 259 251 248 248 250 253 251 246 243 238 236 234 234 236 237 239 241 244 249 253 256 258 260 260 257 252 253 252 251 249 247 246 243 241 241 241 243 243 244 247 249 252 253 254 255 258 261
272 267 258 248 247 248 249 252 251 247 242 239 236 235 233 233 235 239 242 245 251 255 257 257 258 262 263 260 256 256 252 246 246 245 243 243 245 242 244 245 246 250 251 251 253 254 256 260 262
270 264 256 246 243 247 249 248 244 241 238 236 235 233 233 232 234 237 241 245 250 254 258 258 260 263 264 262 260 257 255 252 248 247 246 246 246 243 243 242 246 250 249 253 257 259 260 262 264
266 260 254 246 240 242 245 245 240 235 234 234 234 233 233 232 233 236 240 244 249 253 256 258 261 264 268 266 267 267 264 257 251 249 245 245 246 247 246 248 249 252 254 257 261 265 266 267 268
265 257 251 244 240 242 243 246 240 233 233 233 233 233 234 234 236 238 240 243 246 251 255 257 262 264 267 271 274 274 273 266 255 250 245 243 243 245 247 249 252 255 257 261 262 266 269 270 272
261 254 248 242 241 242 242 246 241 236 236 236 235 236 236 236 237 239 241 244 246 249 254 257 261 266 268 272 276 282 276 269 257 251 246 244 241 243 246 250 253 257 261 264 268 270 270 273 275
257 250 246 242 240 244 243 247 248 244 242 243 239 239 240 241 241 240 242 246 247 248 252 257 260 266 271 274 276 280 273 268 261 254 248 244 243 245 249 252 258 264 267 269 274 275 276 277 277
253 248 245 242 242 244 244 247 249 248 251 252 250 248 247 246 246 242 241 243 247 250 254 258 260 265 269 273 276 279 276 274 269 262 257 254 253 251 258 262 267 271 274 275 276 277 278 278 278
251 245 243 241 244 247 247 250 252 256 259 261 262 259 255 253 251 247 244 245 249 252 255 258 263 266 268 273 275 276 277 278 273 269 265 265 264 266 269 270 273 275 276 276 277 278 279 280 281
248 241 241 241 242 248 253 254 255 257 262 265 267 266 263 255 255 254 251 250 251 252 255 257 261 265 268 271 273 276 276 275 272 275 270 271 270 269 269 271 275 276 278 280 280 281 282 283 284
247 237 237 240 245 249 257 261 262 264 265 266 268 268 268 263 259 256 254 252 252 253 254 256 260 263 266 266 267 270 270 273 272 273 273 272 271 272 274 276 278 280 282 283 284 284 284 285 285
241 234 239 243 246 251 259 263 266 267 264 266 268 269 270 265 259 256 253 251 250 252 255 256 260 262 263 264 265 267 268 270 271 272 272 272 273 276 278 280 281 282 283 283 284 284 285 286 287
Height
5862 5864 5865 5866 5868 5869 5870 5871 5871 5871 5872 5873 5874 5875 5876 5877 5878 5881 5879 5878 5879 5880 5881 5882 5884 5885 5886 5887 5888 5888 5889 5891 5892 5893 5894 5895 5895 5896 5896 5896 5896 5896 5896 5896 5896 5896 5896 5895 5895
5859 5860 5862 5863 5864 5866 5868 5868 5868 5868 5870 5871 5872 5873 5873 5874 5875 5875 5875 5876 5877 5878 5879 5880 5881 5883 5884 5885 5885 5886 5887 5888 5889 5890 5891 5892 5893 5894 5894 5894 5895 5895 5895 5895 5895 5895 5895 5895 5895
5855 5856 5858 5859 5861 5864 5865 5865 5865 5865 5867 5868 5869 5870 5871 5871 5872 5873 5873 5874 5874 5875 5876 5877 5879 5880 5881 5882 5883 5884 5884 5886 5887 5888 5889 5890 5891 5892 5892 5892 5893 5893 5893 5894 5894 5894 5894 5894 5894
5852 5853 5853 5855 5858 5861 5862 5861 5861 5862 5863 5865 5866 5867 5868 5869 5869 5870 5871 5871 5872 5872 5873 5874 5876 5877 5878 5879 5880 5881 5882 5883 5884 5885 5886 5887 5888 5889 5890 5890 5891 5891 5892 5892 5893 5893 5893 5893 5894
5848 5848 5849 5851 5855 5858 5858 5858 5857 5858 5860 5861 5863 5864 5865 5866 5866 5867 5868 5868 5869 5869 5870 5871 5873 5874 5875 5876 5877 5879 5880 5881 5882 5883 5884 5885 5886 5887 5888 5888 5889 5889 5890 5891 5891 5892 5892 5893 5893
5843 5844 5845 5847 5851 5853 5854 5853 5853 5854 5855 5857 5859 5861 5862 5863 5863 5864 5865 5866 5866 5867 5867 5868 5870 5871 5872 5874 5875 5876 5877 5878 5879 5881 5882 5883 5884 5885 5886 5886 5887 5888 5888 5889 5890 5891 5891 5891 5892
5839 5839 5840 5842 5845 5848 5850 5849 5849 5849 5851 5853 5855 5858 5860 5860 5861 5862 5863 5864 5864 5864 5864 5865 5866 5867 5869 5870 5872 5873 5874 5876 5877 5878 5879 5881 5882 5883 5884 5885 5885 5886 5887 5887 5888 5889 5890 5890 5890
5832 5834 5835 5837 5840 5843 5844 5843 5844 5844 5846 5848 5851 5855 5857 5858 5859 5860 5861 5861 5861 5861 5860 5861 5863 5864 5866 5867 5869 5870 5872 5873 5874 5876 5877 5879 5880 5881 5882 5883 5883 5884 5885 5885 5886 5887 5888 5888 5888
5827 5829 5830 5832 5833 5836 5836 5837 5838 5839 5841 5843 5846 5850 5853 5854 5856 5857 5857 5858 5858 5858 5858 5858 5860 5861 5863 5865 5866 5867 5869 5870 5871 5873 5875 5876 5877 5879 5880 5880 5881 5882 5883 5883 5884 5885 5886 5886 5886
5821 5823 5824 5825 5826 5828 5829 5830 5831 5833 5835 5838 5842 5846 5848 5851 5853 5854 5855 5856 5855 5855 5856 5855 5856 5858 5860 5862 5863 5864 5866 5867 5869 5870 5872 5873 5875 5876 5877 5878 5879 5879 5880 5881 5882 5883 5883 5884 5884
5815 5817 5817 5818 5819 5820 5822 5824 5825 5827 5830 5834 5837 5841 5844 5847 5850 5851 5852 5853 5853 5853 5853 5853 5854 5855 5857 5859 5860 5861 5863 5864 5866 5867 5868 5870 5872 5873 5874 5875 5876 5877 5878 5878 5879 5880 5881 5882 5882
5810 5811 5811 5812 5812 5814 5816 5818 5819 5821 5826 5829 5832 5836 5840 5843 5846 5847 5848 5849 5850 5851 5851 5850 5850 5851 5853 5855 5856 5858 5859 5861 5862 5864 5865 5867 5868 5869 5871 5872 5873 5874 5875 5875 5876 5877 5878 5879 5879
5804 5804 5805 5806 5807 5808 5810 5812 5814 5817 5821 5823 5826 5830 5835 5839 5841 5842 5844 5845 5846 5847 5847 5846 5847 5848 5849 5851 5853 5855 5856 5858 5859 5860 5862 5863 5865 5866 5867 5869 5870 5870 5871 5872 5873 5874 5875 5875 5876
5798 5798 5799 5800 5800 5801 5803 5805 5808 5812 5814 5817 5821 5825 5830 5835 5837 5839 5840 5841 5842 5843 5844 5844 5844 5845 5846 5847 5849 5851 5852 5854 5855 5856 5858 5859 5861 5862 5863 5865 5866 5867 5867 5868 5869 5870 5870 5871 5872
5791 5792 5793 5793 5793 5794 5796 5799 5802 5805 5807 5811 5815 5819 5824 5829 5833 5835 5836 5837 5839 5840 5840 5840 5840 5841 5842 5843 5845 5846 5848 5849 5850 5852 5853 5855 5857 5858 5859 5860 5861 5863 5863 5864 5865 5866 5866 5867 5867
5786 5786 5787 5787 5787 5788 5790 5793 5795 5796 5799 5803 5808 5813 5818 5823 5827 5830 5832 5833 5834 5836 5836 5837 5838 5837 5837 5838 5840 5842 5843 5844 5845 5847 5849 5850 5852 5853 5855 5856 5857 5858 5859 5859 5860 5861 5861 5862 5862
5779 5780 5781 5782 5781 5782 5783 5785 5788 5789 5792 5796 5801 5806 5811 5817 5821 5824 5827 5828 5829 5831 5831 5832 5833 5833 5833 5833 5835 5837 5838 5839 5841 5842 5844 5845 5846 5848 5850 5851 5852 5853 5854 5854 5855 5856 5856 5856 5856
5775 5775 5776 5777 5776 5777 5777 5779 5782 5784 5786 5790 5794 5799 5804 5810 5814 5818 5821 5823 5824 5825 5826 5827 5828 5828 5828 5828 5830 5831 5833 5834 5835 5837 5838 5840 5841 5842 5844 5845 5846 5847 5848 5849 5849 5850 5850 5851 5851
5770 5771 5771 5772 5772 5772 5773 5775 5778 5779 5781 5785 5788 5793 5797 5803 5807 5811 5814 5817 5818 5819 5821 5822 5823 5823 5823 5823 5824 5824 5826 5828 5829 5830 5832 5834 5835 5836 5838 5839 5840 5841 5842 5843 5844 5844 5844 5845 5845
5766 5767 5767 5768 5768 5768 5769 5771 5773 5775 5776 5779 5782 5787 5792 5796 5800 5804 5808 5811 5812 5814 5815 5816 5817 5817 5817 5817 5817 5818 5819 5820 5822 5823 5826 5828 5829 5830 5832 5833 5834 5834 5836 5837 5837 5838 5838 5838 5838
5762 5763 5763 5764 5765 5765 5766 5768 5769 5771 5772 5775 5777 5781 5786 5790 5794 5798 5801 5804 5806 5808 5809 5810 5811 5812 5812 5811 5812 5812 5813 5814 5815 5817 5820 5822 5823 5824 5826 5826 5828 5828 5829 5830 5831 5832 5831 5832 5832
5759 5759 5759 5760 5761 5762 5764 5765 5766 5767 5770 5772 5774 5777 5780 5784 5788 5792 5795 5798 5800 5802 5804 5805 5805 5806 5807 5806 5806 5807 5807 5808 5809 5811 5813 5815 5817 5818 5820 5821 5822 5823 5824 5825 5825 5825 5825 5826 5825
5755 5755 5755 5757 5758 5759 5761 5762 5764 5765 5767 5769 5771 5773 5776 5779 5782 5785 5789 5792 5794 5796 5798 5799 5800 5801 5801 5802 5802 5802 5801 5802 5802 5804 5806 5808 5810 5813 5814 5815 5816 5818 5819 5819 5819 5819 5819 5819 5818
5750 5751 5752 5753 5755 5757 5758 5759 5761 5762 5764 5766 5768 5770 5772 5774 5777 5780 5783 5786 5789 5791 5792 5794 5794 5795 5795 5796 5797 5796 5796 5796 5797 5798 5800 5802 5805 5807 5808 5810 5811 5812 5812 5813 5813 5813 5812 5812 5811
5747 5748 5749 5750 5752 5753 5755 5756 5758 5759 5761 5762 5764 5766 5768 5770 5772 5775 5777 5780 5783 5785 5786 5788 5788 5789 5789 5790 5791 5791 5792 5792 5792 5792 5794 5796 5798 5801 5802 5804 5805 5806 5806 5806 5806 5806 5805 5804 5804
5742 5744 5746 5748 5749 5750 5751 5752 5755 5756 5757 5759 5760 5762 5764 5766 5768 5770 5772 5774 5776 5778 5780 5781 5782 5783 5784 5786 5787 5787 5787 5787 5788 5789 5790 5791 5793 5794 5796 5798 5798 5799 5799 5799 5799 5799 5798 5797 5796
5739 5740 5742 5744 5745 5747 5748 5749 5751 5753 5754 5756 5757 5758 5760 5761 5763 5764 5766 5768 5770 5772 5773 5775 5777 5778 5779 5780 5781 5781 5782 5783 5783 5784 5785 5786 5787 5789 5790 5791 5791 5791 5792 5792 5791 5791 5790 5789 5787
5736 5737 5739 5741 5742 5743 5745 5746 5749 5750 5751 5752 5753 5754 5755 5756 5758 5759 5761 5763 5765 5766 5768 5769 5771 5773 5773 5775 5776 5777 5777 5778 5779 5779 5780 5781 5782 5783 5784 5784 5784 5784 5784 5783 5783 5782 5781 5779 5777
5733 5735 5736 5738 5739 5741 5742 5745 5745 5746 5747 5748 5749 5750 5750 5751 5752 5754 5755 5757 5759 5761 5762 5764 5765 5767 5768 5769 5770 5771 5772 5773 5774 5774 5775 5775 5776 5777 5777 5777 5776 5776 5776 5775 5774 5772 5770 5768 5766
5731 5732 5734 5736 5737 5738 5739 5743 5741 5741 5742 5743 5744 5744 5745 5745 5746 5747 5749 5751 5753 5755 5757 5758 5759 5760 5762 5763 5764 5765 5766 5766 5767 5768 5768 5769 5769 5769 5769 5769 5768 5767 5766 5765 5764 5762 5759 5757 5755